Regional Weather Roundup
Issued by NWS

Home | Current Version | Previous Version | Graphics & Text | Print | Product List | Glossary On
Versions: 1 2 3 4 5 6 7 8 9 10 11 12 13 14 15 16 17 18 19 20 21 22 23 24 25 26 27
000
ASUS45 KPSR 191410
RWRAZ

ARIZONA HOURLY REGIONAL WEATHER ROUNDUP
NATIONAL WEATHER SERVICE PHOENIX AZ
700 AM MST THU JAN 19 2017

NOTE: FAIR INDICATES FEW OR NO CLOUDS BELOW 12,000 FEET WITH NO
SIGNIFICANT WEATHER AND/OR OBSTRUCTIONS TO VISIBILITY.

AZZ001>003-036-191500-
NORTHWEST ARIZONA

CITY           SKY/WX    TMP DP  RH WIND       PRES   REMARKS
BULLHEAD CITY  CLOUDY    50  43  76 CALM      29.92F
KINGMAN        CLOUDY    44  30  57 E6        29.92R
$$

AZZ004>008-015-016-018-191500-
NORTH CENTRAL ARIZONA

CITY           SKY/WX    TMP DP  RH WIND       PRES   REMARKS
GRAND CANYON   LGT SNOW  31  30  96 SW17G25   29.92R WCI  19
WILLIAMS       CLOUDY    32  27  80 S13G28    29.92S WCI  22
PRESCOTT       CLOUDY    39  29  67 S13       29.96S WCI  31
FLAGSTAFF      LGT SNOW  30  27  88 SW9       29.94S FOG     WCI  22
PAYSON         CLOUDY    37  34  87 CALM      30.02S
PAGE           CLOUDY    37  28  70 N3        29.87R
$$

AZZ009>014-017-191500-
NORTHEAST ARIZONA

CITY           SKY/WX    TMP DP  RH WIND       PRES   REMARKS
WINSLOW        CLOUDY    38  30  73 S13G21    29.94F WCI  30
SAINT JOHNS    MOCLDY    25  23  92 CALM      29.97R
SHOW LOW       MOCLDY    32  28  86 S14       29.98R WCI  22
$$

AZZ023-191500-
GREATER PHOENIX AREA

CITY           SKY/WX    TMP DP  RH WIND       PRES   REMARKS
PHOENIX        MOCLDY    49  42  77 E8        29.98R
BUCKEYE          N/A     48  41  76 CALM      30.00R
GLENDALE       MOCLDY    48  46  93 CALM      30.01R
LUKE AFB       MOCLDY    47  44  89 NW5       29.98R
DEER VALLEY    CLOUDY    49  42  77 E6        29.97S
SCOTTSDALE     MOCLDY    47  41  80 SE5       29.99S
MESA-GATEWAY   MOCLDY    45  39  81 SE8       30.00S
CHANDLER       CLOUDY    46  43  87 CALM      29.99S
$$

AZZ027-028-191500-
SOUTHWEST MARICOPA COUNTY AND PINAL COUNTY

CITY           SKY/WX    TMP DP  RH WIND       PRES   REMARKS
CASA GRANDE    MOCLDY    44  39  82 N3        30.00F
$$

AZZ503-504-507>509-191500-
SOUTHEAST ARIZONA

CITY           SKY/WX    TMP DP  RH WIND       PRES   REMARKS
TUCSON         MOCLDY    45  37  73 SE5       30.04S
DAVIS-MONTHAN  CLOUDY    43  38  83 E8        30.03S
RYAN FIELD     CLEAR     43  39  87 CALM      30.05S
NOGALES        MOCLDY    33  30  88 SE6       30.06R WCI  28
SIERRA VISTA   MOCLDY    34  31  88 E3        30.05S
DOUGLAS        CLEAR     30  28  92 CALM      30.06R
SAFFORD        MOCLDY    36  34  92 E5        30.01R WCI  32
$$

AZZ020-021-025-026-031-191500-
SOUTHWEST ARIZONA

CITY           SKY/WX    TMP DP  RH WIND       PRES   REMARKS
YUMA           CLOUDY    54  44  69 CALM      29.98R
$$

CAZ031-033-041-043-047-048-061-191500-
SOUTHERN CALIFORNIA

CITY           SKY/WX    TMP DP  RH WIND       PRES   REMARKS
DOWNTOWN L.A.  RAIN      52  50  93 VRB5      29.92S FOG
L.A. AIRPORT   LGT RAIN  56  54  93 SW12      29.92F FOG
SAN DIEGO      LGT RAIN  57  53  86 S15       30.01F FOG
BURBANK        LGT RAIN  50  48  93 SE12      29.91S FOG
ONTARIO        LGT RAIN  48  48 100 NE9       29.94F FOG
RIVERSIDE      RAIN      50  49  96 NE5       29.94F
PALM SPRINGS   LGT RAIN  52  48  86 SW8       29.96S
EL CENTRO NAS  MOCLDY    52  48  86 SE5       29.98R
IMPERIAL       CLOUDY    53  50  89 S8        29.95S
BLYTHE         CLOUDY    53  49  86 SE7       29.94S
NEEDLES        CLOUDY    54  44  69 W5        29.93R
$$

NVZ020-UTZ003-191500-
SOUTHERN NEVADA-UTAH

CITY           SKY/WX    TMP DP  RH WIND       PRES   REMARKS
LAS VEGAS      CLOUDY    52  37  56 SW12      29.83R
SALT LAKE CITY LGT SNOW  27  23  85 NW5       29.78S FOG     WCI  22
$$

NMZ009-TXZ055-191500-
NEW MEXICO-WEST TEXAS

CITY           SKY/WX    TMP DP  RH WIND       PRES   REMARKS
ALBUQUERQUE    CLOUDY    31  28  89 CALM      29.93R
EL PASO        PTCLDY    47  32  56 W16       29.95R
$$


........................KEY........................
SKY/WX - SKY CONDITION/WEATHER
TMP    - TEMPERATURE IN FAHRENHEIT
DP     - DEW POINT IN FAHRENHEIT
RH     - RELATIVE HUMIDITY IN PERCENT
WIND   - DIRECTION AND SPEED IN MILES PER HOUR (MPH)
VRB    - VARIABLE WIND DIRECTION
PRES   - MEAN SEA LEVEL PRESSURE IN INCHES OF MERCURY
         F - FALLING PRESSURE   R - RISING PRESSURE
         S - STEADY PRESSURE
VSB    - VISIBILITY IN MILES
HX     - HEAT INDEX IN FAHRENHEIT
WCI    - WIND CHILL INDEX IN FAHRENHEIT
TC     - TEMPERATURE IN CELSIUS WHICH IS ALSO KNOWN AS
         TEMPERATURE IN CENTIGRADE
AFB    - AIR FORCE BASE
         LUKE AFB IS LUKE AIR FORCE BASE
         DAVIS-MONTHAN IS DAVIS-MONTHAN AIR FORCE BASE
NAS    - NAVAL AIR STATION
         EL CENTRO NAS IS EL CENTRO NAVAL AIR STATION
N/A    - NOT AVAILABLE





USA.gov is the U.S. government's official web portal to all federal, state and local government web resources and services.